Location: Rometta
(44.2000°N, 10.0500°E)
Time: 22:06:31
(UTC+00:00)

USA 234 - Pass Details

Date: 20 January 2021
Orbit: 1100 x 1107 km, 123.0° (Epoch: 01 March)

Event Time Altitude Azimuth Distance (km) Brightness Sun altitude
Exits shadow 16:52:56 - 61° (ENE) 3,125 5.0 -7.3°
Reaches altitude 10° 16:53:26 10° 59° (ENE) 2,963 4.9 -7.4°
Maximum altitude 16:58:50 29° 3° (N) 1,905 4.3 -8.3°
Drops below altitude 10° 17:04:16 10° 307° (NW) 2,968 6.0 -9.2°
Sets 17:07:05 0° 296° (WNW) 3,927 6.9 -9.7°
